date_time,min-ms,avg-ms
Mon Jan 22 10:00:00 2024,0.676180833333334,2.17421388888889
Mon Jan 22 12:00:00 2024,0.676614861111111,2.14132486111111
Mon Jan 22 14:00:00 2024,0.676988333333333,2.06401888888889
Mon Jan 22 16:00:00 2024,0.676649305555556,2.10357055555556
Mon Jan 22 18:00:00 2024,0.676079861111111,2.12098652777778
Mon Jan 22 20:00:00 2024,0.676583055555556,2.27501472222222
Mon Jan 22 22:00:00 2024,0.677230138888889,2.26836222222222
Tue Jan 23 00:00:00 2024,0.676536250000001,2.17410902777778
Tue Jan 23 02:00:00 2024,0.677444305555556,2.2054225
Tue Jan 23 04:00:00 2024,0.676845833333333,2.30484583333333
Tue Jan 23 06:00:00 2024,0.678058333333333,2.1268375
Tue Jan 23 08:00:00 2024,0.674666666666667,2.09863333333333
Tue Jan 23 10:00:00 2024,0.676491111111111,2.22511861111111
Tue Jan 23 12:00:00 2024,0.67661625,2.18708597222222
Tue Jan 23 14:00:00 2024,0.6785675,2.36391791666667
Tue Jan 23 16:00:00 2024,0.678196666666667,2.24047666666667
Tue Jan 23 18:00:00 2024,0.677466388888889,2.17979444444444
Tue Jan 23 20:00:00 2024,0.676546111111111,2.40455541666667
Tue Jan 23 22:00:00 2024,0.677491666666667,2.19631833333333
Wed Jan 24 00:00:00 2024,0.675955833333333,2.26087958333333
Wed Jan 24 02:00:00 2024,0.67636,2.28377458333333
Wed Jan 24 04:00:00 2024,0.677268611111111,2.24579861111111
Wed Jan 24 06:00:00 2024,0.6780425,2.29300083333333
Wed Jan 24 08:00:00 2024,0.674556944444444,2.23936305555556
Wed Jan 24 10:00:00 2024,0.676678611111111,2.23741208333333
Wed Jan 24 12:00:00 2024,0.675376111111111,2.35532305555556
Wed Jan 24 14:00:00 2024,0.67691,2.24285611111111
Wed Jan 24 16:00:00 2024,0.678238888888889,2.38908083333333
Wed Jan 24 18:00:00 2024,0.676894166666666,2.14873972222222
Wed Jan 24 20:00:00 2024,0.677342777777778,2.0962825
Wed Jan 24 22:00:00 2024,0.676886111111111,2.31202916666667
Thu Jan 25 00:00:00 2024,0.677059722222222,2.32955805555556
Thu Jan 25 02:00:00 2024,0.676375277777777,2.16226194444445
Thu Jan 25 04:00:00 2024,0.677436527777778,2.44434541666667
Thu Jan 25 06:00:00 2024,0.677136666666667,2.25264694444444
Thu Jan 25 08:00:00 2024,0.674575555555556,2.14650277777778
Thu Jan 25 10:00:00 2024,0.676941388888889,2.46891125
Thu Jan 25 12:00:00 2024,0.677234166666667,2.14422
Thu Jan 25 14:00:00 2024,0.677068333333333,2.29936166666667
Thu Jan 25 16:00:00 2024,0.676400694444445,2.31097736111111
Thu Jan 25 18:00:00 2024,0.677617083333333,2.33332069444444
Thu Jan 25 20:00:00 2024,0.67725,2.43124166666667
Thu Jan 25 22:00:00 2024,0.677922916666667,2.27208916666667
Fri Jan 26 00:00:00 2024,0.676208333333333,2.30858333333333
Fri Jan 26 02:00:00 2024,0.676654166666667,2.2176
Fri Jan 26 04:00:00 2024,0.67635,2.24669166666667
Fri Jan 26 06:00:00 2024,0.676583333333333,2.20201666666667
Fri Jan 26 08:00:00 2024,0.674275,2.260075
Fri Jan 26 10:00:00 2024,0.676873055555556,2.22516944444444
Fri Jan 26 12:00:00 2024,0.675874305555556,2.11197569444444
Fri Jan 26 14:00:00 2024,0.676660972222222,2.23311958333333
Fri Jan 26 16:00:00 2024,0.677247361111111,2.24950416666667
Fri Jan 26 18:00:00 2024,0.676525138888889,2.02627569444444
Fri Jan 26 20:00:00 2024,0.677557638888889,2.1388875
Fri Jan 26 22:00:00 2024,0.674306111111111,2.29115625
Sat Jan 27 00:00:00 2024,0.672996944444445,2.03833
Sat Jan 27 02:00:00 2024,0.675598472222222,2.15072986111111
Sat Jan 27 04:00:00 2024,0.677425555555556,2.17409430555556
Sat Jan 27 06:00:00 2024,0.678115694444444,2.22606458333333
Sat Jan 27 08:00:00 2024,0.675133055555555,2.27324680555556
Sat Jan 27 10:00:00 2024,0.676585555555556,2.25030111111111
Sat Jan 27 12:00:00 2024,0.675958333333333,2.27779861111111
Sat Jan 27 14:00:00 2024,0.676809722222222,2.13763527777778
Sat Jan 27 16:00:00 2024,0.676113611111111,2.106395
Sat Jan 27 18:00:00 2024,0.677180277777778,2.28843944444444
Sat Jan 27 20:00:00 2024,0.676199166666666,2.12515861111111
Sat Jan 27 22:00:00 2024,0.676999722222222,2.24606166666667
Sun Jan 28 00:00:00 2024,0.676204722222222,2.13615833333333
Sun Jan 28 02:00:00 2024,0.678234305555556,2.19436361111111
Sun Jan 28 04:00:00 2024,0.676266666666667,2.20060055555556
Sun Jan 28 06:00:00 2024,0.677107499999999,2.15446305555556
Sun Jan 28 08:00:00 2024,0.675962777777778,2.26370319444444
Sun Jan 28 10:00:00 2024,0.676384027777778,2.28228958333333
Sun Jan 28 12:00:00 2024,0.676677777777778,2.16998125
Sun Jan 28 14:00:00 2024,0.677044444444445,2.24795138888889
Sun Jan 28 16:00:00 2024,0.676695277777778,2.11029
Sun Jan 28 18:00:00 2024,0.676618611111111,2.23254138888889
Sun Jan 28 20:00:00 2024,0.678906944444444,2.29220069444444
Sun Jan 28 22:00:00 2024,0.677202083333333,2.14998819444444
Mon Jan 29 00:00:00 2024,0.676608333333333,2.25709583333333
Mon Jan 29 02:00:00 2024,0.676744027777777,2.32016069444444
Mon Jan 29 04:00:00 2024,0.676990833333334,2.26357694444444
Mon Jan 29 06:00:00 2024,0.677332638888889,2.05172361111111
Mon Jan 29 08:00:00 2024,0.675393055555556,2.23678125
Mon Jan 29 10:00:00 2024,0.677495555555556,2.31790763888889
Mon Jan 29 12:00:00 2024,0.677988333333333,2.11849333333333
Mon Jan 29 14:00:00 2024,0.67785,2.196365
Mon Jan 29 16:00:00 2024,0.678205833333334,2.25121819444445
Mon Jan 29 18:00:00 2024,0.678087083333333,2.29680138888889
Mon Jan 29 20:00:00 2024,0.677853333333334,2.27276833333333
Mon Jan 29 22:00:00 2024,0.67772,2.33293333333333
Tue Jan 30 00:00:00 2024,0.677894305555556,2.27781930555556
Tue Jan 30 02:00:00 2024,0.677766111111111,2.31352097222222
Tue Jan 30 04:00:00 2024,0.67771125,2.19599958333333
Tue Jan 30 06:00:00 2024,0.677693055555556,2.11981875
Tue Jan 30 08:00:00 2024,0.674727777777778,2.20023194444444
Tue Jan 30 10:00:00 2024,0.676905555555555,2.18197305555555
Tue Jan 30 12:00:00 2024,0.676775,2.12413041666667
Tue Jan 30 14:00:00 2024,0.676011111111111,2.23213347222222
Tue Jan 30 16:00:00 2024,0.677263055555555,2.22461083333333
Tue Jan 30 18:00:00 2024,0.676455555555556,2.2400525
Tue Jan 30 20:00:00 2024,0.676263055555555,2.31755138888889
Tue Jan 30 22:00:00 2024,0.677433888888889,2.25309861111111
Wed Jan 31 00:00:00 2024,0.676985416666667,2.15595513888889
Wed Jan 31 02:00:00 2024,0.676929722222222,2.17141055555556
Wed Jan 31 04:00:00 2024,0.6773725,2.10758777777778
Wed Jan 31 06:00:00 2024,0.676395416666666,2.15361041666667
Wed Jan 31 08:00:00 2024,0.673990833333333,2.23817430555556
Wed Jan 31 10:00:00 2024,0.677192222222222,2.19279527777778
Wed Jan 31 12:00:00 2024,0.676944305555556,2.2071825
Wed Jan 31 14:00:00 2024,0.677368333333334,2.12534833333333
Wed Jan 31 16:00:00 2024,0.677118333333333,2.24222
Wed Jan 31 18:00:00 2024,0.677122222222222,2.11543597222222
Wed Jan 31 20:00:00 2024,0.677707916666666,2.15001555555556
Wed Jan 31 22:00:00 2024,0.676071666666667,2.171445
Thu Feb  1 00:00:00 2024,0.67651,2.25260333333333
Thu Feb  1 02:00:00 2024,0.676803333333334,2.34244666666667
Thu Feb  1 04:00:00 2024,0.676863333333333,2.30555166666667
Thu Feb  1 06:00:00 2024,0.677033333333333,2.15955333333333
Thu Feb  1 08:00:00 2024,0.672594722222222,2.17181652777778
Thu Feb  1 10:00:00 2024,0.672706111111111,2.22153111111111
Thu Feb  1 12:00:00 2024,0.672007638888889,2.08074638888889
Thu Feb  1 14:00:00 2024,0.672211944444445,2.08014555555556
Thu Feb  1 16:00:00 2024,0.672693888888889,2.16202416666667
Thu Feb  1 18:00:00 2024,0.673271527777778,2.16945236111111
Thu Feb  1 20:00:00 2024,0.673045,2.46750666666667
Thu Feb  1 22:00:00 2024,0.673523888888889,2.31625222222222
Fri Feb  2 00:00:00 2024,0.673237777777778,2.23512666666667
Fri Feb  2 02:00:00 2024,0.674343888888889,2.17191972222222
Fri Feb  2 04:00:00 2024,0.6760275,2.16226472222222
Fri Feb  2 06:00:00 2024,0.677245277777778,2.17919583333333
Fri Feb  2 08:00:00 2024,0.6740825,2.30619527777778
Fri Feb  2 10:00:00 2024,0.676585972222222,2.08253777777778
Fri Feb  2 12:00:00 2024,0.677278333333333,2.2754825
Fri Feb  2 14:00:00 2024,0.677080833333333,2.10654694444444
Fri Feb  2 16:00:00 2024,0.678468611111111,2.14537819444444
Fri Feb  2 18:00:00 2024,0.679323055555555,2.1594025
Fri Feb  2 20:00:00 2024,0.677878194444445,2.30350875
Fri Feb  2 22:00:00 2024,0.673973333333333,2.19952152777778
Sat Feb  3 00:00:00 2024,0.673903611111112,2.1114375
Sat Feb  3 02:00:00 2024,0.675620277777778,2.25507
Sat Feb  3 04:00:00 2024,0.676645,2.16617958333333
Sat Feb  3 06:00:00 2024,0.6774725,2.35065222222222
Sat Feb  3 08:00:00 2024,0.674715277777778,2.16182416666667
Sat Feb  3 10:00:00 2024,0.677174444444445,2.13252513888889
Sat Feb  3 12:00:00 2024,0.6766575,2.18052833333333
Sat Feb  3 14:00:00 2024,0.676633472222222,2.17722180555556
Sat Feb  3 16:00:00 2024,0.677625277777777,2.26115986111111
Sat Feb  3 18:00:00 2024,0.678263333333334,2.0507175
Sat Feb  3 20:00:00 2024,0.6791125,2.14252791666667
Sat Feb  3 22:00:00 2024,0.679785416666667,2.23829180555556
Sun Feb  4 00:00:00 2024,0.679072916666667,2.1095375
Sun Feb  4 02:00:00 2024,0.679660416666667,2.08654375
Sun Feb  4 04:00:00 2024,0.677584583333333,2.25333527777778
Sun Feb  4 06:00:00 2024,0.678141944444444,2.09118555555556
Sun Feb  4 08:00:00 2024,0.676715555555556,2.32083611111111
Sun Feb  4 10:00:00 2024,0.678512222222222,2.20347361111111
Sun Feb  4 12:00:00 2024,0.679063333333333,2.40124055555556
Sun Feb  4 14:00:00 2024,0.678600277777778,2.1703775
Sun Feb  4 16:00:00 2024,0.679321944444444,2.17932583333333
Sun Feb  4 18:00:00 2024,0.677088888888889,2.2118725
Sun Feb  4 20:00:00 2024,0.677554307116105,2.22206292134831
Sun Feb  4 22:00:00 2024,0,0
Mon Feb  5 00:00:00 2024,0,0
Mon Feb  5 02:00:00 2024,0,0
Mon Feb  5 04:00:00 2024,0,0
Mon Feb  5 06:00:00 2024,0,0
Mon Feb  5 08:00:00 2024,0,0
Mon Feb  5 10:00:00 2024,0,0
Mon Feb  5 12:00:00 2024,0,0
Mon Feb  5 14:00:00 2024,0,0
Mon Feb  5 16:00:00 2024,0,0
Mon Feb  5 18:00:00 2024,0,0
Mon Feb  5 20:00:00 2024,0,0
Mon Feb  5 22:00:00 2024,0,0
Tue Feb  6 00:00:00 2024,0,0
Tue Feb  6 02:00:00 2024,0,0
Tue Feb  6 04:00:00 2024,0,0
Tue Feb  6 06:00:00 2024,0,0
Tue Feb  6 08:00:00 2024,0,0
Tue Feb  6 10:00:00 2024,0.684180780780781,2.24687897897898
Tue Feb  6 12:00:00 2024,0.684408333333334,2.31172944444444
Tue Feb  6 14:00:00 2024,0.682371944444445,2.24557263888889
Tue Feb  6 16:00:00 2024,0.684128055555555,2.20340194444444
Tue Feb  6 18:00:00 2024,0.685384027777778,2.46834527777778
Tue Feb  6 20:00:00 2024,0.681775,2.2754375
Tue Feb  6 22:00:00 2024,0.684107777777778,2.25291
Wed Feb  7 00:00:00 2024,0.684688888888889,2.34507444444444
Wed Feb  7 02:00:00 2024,0.68428625,2.39499736111111
Wed Feb  7 04:00:00 2024,0.683768055555556,2.16259833333333
Wed Feb  7 06:00:00 2024,0.683269861111111,2.29198833333333
Wed Feb  7 08:00:00 2024,0.679293194444444,2.16283055555556
Wed Feb  7 10:00:00 2024,0.682630555555556,2.26548958333333
Wed Feb  7 12:00:00 2024,0.683400555555555,2.21038375
Wed Feb  7 14:00:00 2024,0.682694166666667,2.25608444444444
Wed Feb  7 16:00:00 2024,0.68509875,2.2931725
Wed Feb  7 18:00:00 2024,0.685161388888889,2.34182333333333
Wed Feb  7 20:00:00 2024,0.684730694444445,2.05152444444444
Wed Feb  7 22:00:00 2024,0.682862222222222,2.21825305555556
Thu Feb  8 00:00:00 2024,0.682452083333333,2.3972375
Thu Feb  8 02:00:00 2024,0.681808333333333,2.31366722222222
Thu Feb  8 04:00:00 2024,0.683071944444444,2.25486416666667
Thu Feb  8 06:00:00 2024,0.683730833333333,2.33847041666667
Thu Feb  8 08:00:00 2024,0.678053194444444,2.19167680555555
Thu Feb  8 10:00:00 2024,0.683926805555556,2.23256361111111
Thu Feb  8 12:00:00 2024,0.684703611111111,2.15023555555555
Thu Feb  8 14:00:00 2024,0.684653888888889,2.24009666666667
Thu Feb  8 16:00:00 2024,0.685702916666667,2.30120986111111
Thu Feb  8 18:00:00 2024,0.685963472222222,2.27634847222222
Thu Feb  8 20:00:00 2024,0.684886527777778,2.26336458333333
Thu Feb  8 22:00:00 2024,0.686027083333333,2.35517527777778
Fri Feb  9 00:00:00 2024,0.685504444444444,2.282425
Fri Feb  9 02:00:00 2024,0.684376527777778,2.23553416666667
Fri Feb  9 04:00:00 2024,0.684366527777777,2.24731125
Fri Feb  9 06:00:00 2024,0.6852375,2.39824458333333
Fri Feb  9 08:00:00 2024,0.679625,2.16528027777778
Fri Feb  9 10:00:00 2024,0.682991666666667,2.23217944444444
Fri Feb  9 12:00:00 2024,0.683520972222222,2.15039875
Fri Feb  9 14:00:00 2024,0.683950555555556,2.12053375
Fri Feb  9 16:00:00 2024,0.681357638888889,2.19963958333333
Fri Feb  9 18:00:00 2024,0.680335833333333,2.13379069444444
Fri Feb  9 20:00:00 2024,0.679209722222222,2.23229916666667
Fri Feb  9 22:00:00 2024,0.675823888888889,2.22400944444444
Sat Feb 10 00:00:00 2024,0.676247222222222,2.34343861111111
Sat Feb 10 02:00:00 2024,0.6749425,2.01959861111111
Sat Feb 10 04:00:00 2024,0.675329305555556,2.10159930555556
Sat Feb 10 06:00:00 2024,0.674672222222222,2.28063125
Sat Feb 10 08:00:00 2024,0.672683055555555,2.25229222222222
Sat Feb 10 10:00:00 2024,0.675328472222222,2.33429291666667
Sat Feb 10 12:00:00 2024,0.675255694444444,2.09584847222222
Sat Feb 10 14:00:00 2024,0.674956111111111,2.25812958333333
Sat Feb 10 16:00:00 2024,0.675301388888889,2.33967888888889
Sat Feb 10 18:00:00 2024,0.675016666666667,2.31591805555556
Sat Feb 10 20:00:00 2024,0.675492361111111,2.20366319444444
Sat Feb 10 22:00:00 2024,0.675822777777778,2.24089
Sun Feb 11 00:00:00 2024,0.674845138888889,2.26102291666667
Sun Feb 11 02:00:00 2024,0.674173333333334,2.15362527777778
Sun Feb 11 04:00:00 2024,0.674574305555556,2.35175277777778
Sun Feb 11 06:00:00 2024,0.674768194444444,2.20077652777778
Sun Feb 11 08:00:00 2024,0.672681944444444,2.17045347222222
Sun Feb 11 10:00:00 2024,0.676007777777778,2.21807847222222
Sun Feb 11 12:00:00 2024,0.674733333333333,2.26426166666667
Sun Feb 11 14:00:00 2024,0.675316666666667,2.37133333333333
Sun Feb 11 16:00:00 2024,0.676763333333333,2.16282180555556
Sun Feb 11 18:00:00 2024,0.67530625,2.37697569444444
Sun Feb 11 20:00:00 2024,0.675720972222222,2.33619861111111
Sun Feb 11 22:00:00 2024,0.675884444444445,2.26975013888889
Mon Feb 12 00:00:00 2024,0.676982777777778,2.39197027777778
Mon Feb 12 02:00:00 2024,0.677814722222222,2.22980847222222
Mon Feb 12 04:00:00 2024,0.677321805555556,2.20991319444444
Mon Feb 12 06:00:00 2024,0.676313888888889,2.16992472222222
Mon Feb 12 08:00:00 2024,0.675027361111111,2.25576569444444
Mon Feb 12 10:00:00 2024,0.677668055555555,2.13164902777778
Mon Feb 12 12:00:00 2024,0.67815125,2.34044680555556
Mon Feb 12 14:00:00 2024,0.676248611111111,2.27648541666667
Mon Feb 12 16:00:00 2024,0.677025,2.14807083333333
Mon Feb 12 18:00:00 2024,0.676284861111111,2.24032041666667
Mon Feb 12 20:00:00 2024,0.677702222222222,2.35986763888889
Mon Feb 12 22:00:00 2024,0.676399166666666,2.14909388888889
Tue Feb 13 00:00:00 2024,0.675789027777778,2.28385472222222
Tue Feb 13 02:00:00 2024,0.675402916666667,2.35321138888889
Tue Feb 13 04:00:00 2024,0.675710833333333,2.01896486111111
Tue Feb 13 06:00:00 2024,0.675809722222222,2.18773013888889
Tue Feb 13 08:00:00 2024,0.672961944444444,2.24275777777778
Tue Feb 13 10:00:00 2024,0.675177777777778,2.12114277777778
Tue Feb 13 12:00:00 2024,0.674718333333333,2.19150333333333
Tue Feb 13 14:00:00 2024,0.6752225,2.20068958333333
Tue Feb 13 16:00:00 2024,0.674835694444445,2.30546111111111
Tue Feb 13 18:00:00 2024,0.67584875,2.13321555555555
Tue Feb 13 20:00:00 2024,0.675016388888889,2.31931666666667
Tue Feb 13 22:00:00 2024,0.674486666666667,2.20002777777778
Wed Feb 14 00:00:00 2024,0.676125972222222,2.40599611111111
Wed Feb 14 02:00:00 2024,0.675303333333333,2.14096333333333
Wed Feb 14 04:00:00 2024,0.674344166666667,2.21295138888889
Wed Feb 14 06:00:00 2024,0.674425,2.08793333333333
Wed Feb 14 08:00:00 2024,0.673329444444445,2.15789388888889
Wed Feb 14 10:00:00 2024,0.674834166666667,1.96233166666667
Wed Feb 14 12:00:00 2024,0.676469722222222,2.30787958333333
Wed Feb 14 14:00:00 2024,0.675505138888889,2.13398541666667
Wed Feb 14 16:00:00 2024,0.675222222222223,2.18910555555556
Wed Feb 14 18:00:00 2024,0.675468055555556,2.36754097222222
Wed Feb 14 20:00:00 2024,0.675771527777778,2.08560555555556
Wed Feb 14 22:00:00 2024,0.675527083333333,2.26409722222222
Thu Feb 15 00:00:00 2024,0.674885416666667,2.26977986111111
Thu Feb 15 02:00:00 2024,0.674588194444444,2.17368611111111
Thu Feb 15 04:00:00 2024,0.675305416666667,2.19770194444445
Thu Feb 15 06:00:00 2024,0.675347916666666,2.16276597222222
Thu Feb 15 08:00:00 2024,0.672674166666667,2.26592
Thu Feb 15 10:00:00 2024,0.674433194444445,2.23043208333333
Thu Feb 15 12:00:00 2024,0.674123611111111,2.12153055555556
Thu Feb 15 14:00:00 2024,0.674614444444445,2.17083416666667
Thu Feb 15 16:00:00 2024,0.675023333333333,2.25523708333333
Thu Feb 15 18:00:00 2024,0.675128888888889,2.19785416666667
Thu Feb 15 20:00:00 2024,0.674820138888889,2.29896319444444
Thu Feb 15 22:00:00 2024,0.67568125,2.27808486111111
Fri Feb 16 00:00:00 2024,0.675089027777778,2.21495361111111
Fri Feb 16 02:00:00 2024,0.674834861111111,2.36515291666667
Fri Feb 16 04:00:00 2024,0.674484722222222,2.27469444444445
Fri Feb 16 06:00:00 2024,0.675061805555555,2.1472
Fri Feb 16 08:00:00 2024,0.671809722222222,2.08694375
Fri Feb 16 10:00:00 2024,0.674712916666667,2.33991208333333
Fri Feb 16 12:00:00 2024,0.676476805555556,2.25194875
Fri Feb 16 14:00:00 2024,0.674706805555555,2.26707041666667
Fri Feb 16 16:00:00 2024,0.676181527777778,2.22166555555556
Fri Feb 16 18:00:00 2024,0.675489583333333,2.09554569444444
Fri Feb 16 20:00:00 2024,0.6758225,2.27613722222222
Fri Feb 16 22:00:00 2024,0.675172222222222,2.14344541666667
Sat Feb 17 00:00:00 2024,0.676353055555555,2.15425597222222
Sat Feb 17 02:00:00 2024,0.674157222222222,2.31901222222222
Sat Feb 17 04:00:00 2024,0.675994444444445,2.19751388888889
Sat Feb 17 06:00:00 2024,0.675115277777778,2.22730208333333
Sat Feb 17 08:00:00 2024,0.673199305555555,2.12233472222222
Sat Feb 17 10:00:00 2024,0.675091805555556,2.27129777777778
Sat Feb 17 12:00:00 2024,0.674780555555555,2.34595833333333
Sat Feb 17 14:00:00 2024,0.674546666666667,2.27166875
Sat Feb 17 16:00:00 2024,0.675227083333333,2.14683472222222
Sat Feb 17 18:00:00 2024,0.675120694444444,2.23523625
Sat Feb 17 20:00:00 2024,0.675070277777777,2.27318138888889
Sat Feb 17 22:00:00 2024,0.6758325,2.06414305555556
Sun Feb 18 00:00:00 2024,0.675464722222222,2.11902194444444
Sun Feb 18 02:00:00 2024,0.675707638888889,2.25402736111111
Sun Feb 18 04:00:00 2024,0.675765833333334,2.22859291666667
Sun Feb 18 06:00:00 2024,0.674817083333334,2.11628569444445
Sun Feb 18 08:00:00 2024,0.673187777777778,2.28564625
Sun Feb 18 10:00:00 2024,0.676213611111111,2.09157027777778
Sun Feb 18 12:00:00 2024,0.674320277777778,2.16946819444444
Sun Feb 18 14:00:00 2024,0.674825,2.11266388888889
Sun Feb 18 16:00:00 2024,0.675027083333333,2.20201458333333
Sun Feb 18 18:00:00 2024,0.675035416666667,2.30373333333333
Sun Feb 18 20:00:00 2024,0.674752222222222,2.18798402777778
Sun Feb 18 22:00:00 2024,0.675496388888889,2.11680013888889
Mon Feb 19 00:00:00 2024,0.676914444444445,2.24601055555556
Mon Feb 19 02:00:00 2024,0.677096111111111,2.20197472222222
Mon Feb 19 04:00:00 2024,0.677570833333334,2.20581680555556
Mon Feb 19 06:00:00 2024,0.677265833333333,2.26944291666667
Mon Feb 19 08:00:00 2024,0.674739861111111,2.25395597222222
Mon Feb 19 10:00:00 2024,0.677075555555556,2.12566458333333
Mon Feb 19 12:00:00 2024,0.677193055555555,2.263275
Mon Feb 19 14:00:00 2024,0.6768925,2.09385166666667
Mon Feb 19 16:00:00 2024,0.677299166666667,2.1902675
Mon Feb 19 18:00:00 2024,0.677786111111111,2.20120083333333
Mon Feb 19 20:00:00 2024,0.677099166666666,2.1672375
Mon Feb 19 22:00:00 2024,0.67716625,2.34729666666667
Tue Feb 20 00:00:00 2024,0.675800555555555,2.28270819444444
Tue Feb 20 02:00:00 2024,0.674654166666666,2.11616041666667
Tue Feb 20 04:00:00 2024,0.674829166666667,2.29269375
Tue Feb 20 06:00:00 2024,0.67531,2.17617083333333
Tue Feb 20 08:00:00 2024,0.672772777777778,2.13853597222222
Tue Feb 20 10:00:00 2024,0.673965833333333,2.38356416666667
Tue Feb 20 12:00:00 2024,0.693925833333333,2.30079277777778
Tue Feb 20 14:00:00 2024,0.675070555555555,2.05647861111111
Tue Feb 20 16:00:00 2024,0.674668055555556,2.03592152777778
Tue Feb 20 18:00:00 2024,0.674736111111111,2.27913263888889
Tue Feb 20 20:00:00 2024,0.675232361111111,2.24872277777778
Tue Feb 20 22:00:00 2024,0.67637,2.16238375
Wed Feb 21 00:00:00 2024,0.676648472222222,2.21534263888889
Wed Feb 21 02:00:00 2024,0.677318611111111,2.24731611111111
Wed Feb 21 04:00:00 2024,0.678362083333333,2.34328166666667
Wed Feb 21 06:00:00 2024,0.677819444444445,2.31827847222222
Wed Feb 21 08:00:00 2024,0.675507777777778,2.22680111111111
Wed Feb 21 10:00:00 2024,0.677164166666666,2.38534430555555
Wed Feb 21 12:00:00 2024,0.676281944444444,2.3239125
Wed Feb 21 14:00:00 2024,0.676741805555556,2.25390361111111
Wed Feb 21 16:00:00 2024,0.677611805555556,2.11176361111111
Wed Feb 21 18:00:00 2024,0.676743333333333,2.03547166666667
Wed Feb 21 20:00:00 2024,0.676166944444444,2.29320458333333
Wed Feb 21 22:00:00 2024,0.677207083333334,2.19108722222222
Thu Feb 22 00:00:00 2024,0.67789125,2.08780388888889
Thu Feb 22 02:00:00 2024,0.677589305555555,2.34418791666667
Thu Feb 22 04:00:00 2024,0.677415972222222,2.30267180555556
Thu Feb 22 06:00:00 2024,0.677536388888889,2.00323069444444
Thu Feb 22 08:00:00 2024,0.674612222222222,2.28617666666667
Thu Feb 22 10:00:00 2024,0.6757975,2.23116527777778
Thu Feb 22 12:00:00 2024,0.676298611111111,2.06015763888889
Thu Feb 22 14:00:00 2024,0.676072916666667,2.23845972222222
Thu Feb 22 16:00:00 2024,0.677043333333334,2.30554513888889
Thu Feb 22 18:00:00 2024,0.677217638888889,2.18028597222222
Thu Feb 22 20:00:00 2024,0.67701,2.359625
Thu Feb 22 22:00:00 2024,0.678243333333333,2.19207666666667
Fri Feb 23 00:00:00 2024,0.677736944444445,2.26625916666667
Fri Feb 23 02:00:00 2024,0.676999583333333,2.17520888888889
Fri Feb 23 04:00:00 2024,0.677944722222222,2.27900444444444
Fri Feb 23 06:00:00 2024,0.676891666666667,2.14938333333333
Fri Feb 23 08:00:00 2024,0.67498,2.14493166666667
Fri Feb 23 10:00:00 2024,0.6766925,2.12468180555555
Fri Feb 23 12:00:00 2024,0.676919444444445,2.23693888888889
Fri Feb 23 14:00:00 2024,0.67639375,2.12941319444444
Fri Feb 23 16:00:00 2024,0.677289583333333,2.11505138888889
Fri Feb 23 18:00:00 2024,0.677331111111111,2.28131777777778
Fri Feb 23 20:00:00 2024,0.676768194444444,2.30323916666667
Fri Feb 23 22:00:00 2024,0.677053055555556,2.42227041666667
Sat Feb 24 00:00:00 2024,0.67843625,2.22968722222222
Sat Feb 24 02:00:00 2024,0.676953333333333,2.20447027777778
Sat Feb 24 04:00:00 2024,0.67668625,2.22235486111111
Sat Feb 24 06:00:00 2024,0.676412916666667,2.21999638888889
Sat Feb 24 08:00:00 2024,0.674252777777778,2.13166180555555
Sat Feb 24 10:00:00 2024,0.676807916666667,2.28053069444444
Sat Feb 24 12:00:00 2024,0.676648333333333,2.15334722222222
Sat Feb 24 14:00:00 2024,0.676541944444444,2.17133222222222
Sat Feb 24 16:00:00 2024,0.676334444444444,2.27133361111111
Sat Feb 24 18:00:00 2024,0.6763525,2.15044930555556
Sat Feb 24 20:00:00 2024,0.675709722222222,2.19269111111111
Sat Feb 24 22:00:00 2024,0.676363888888889,2.25519652777778
Sun Feb 25 00:00:00 2024,0.677258333333333,2.17553402777778
Sun Feb 25 02:00:00 2024,0.676745694444444,2.20297097222222
Sun Feb 25 04:00:00 2024,0.676652083333333,2.28539347222222
Sun Feb 25 06:00:00 2024,0.676451944444444,2.19106819444444
Sun Feb 25 08:00:00 2024,0.673965,2.31960333333333
Sun Feb 25 10:00:00 2024,0.67574375,2.49792375
Sun Feb 25 12:00:00 2024,0.67615875,2.25845180555556
Sun Feb 25 14:00:00 2024,0.676815416666667,2.247965
Sun Feb 25 16:00:00 2024,0.677365833333333,2.30868986111111
Sun Feb 25 18:00:00 2024,0.67725125,2.1914525
Sun Feb 25 20:00:00 2024,0.677399583333333,2.19336416666667
Sun Feb 25 22:00:00 2024,0.677226666666666,2.33887083333333
Mon Feb 26 00:00:00 2024,0.678399444444445,2.26280027777778
Mon Feb 26 02:00:00 2024,0.676294027777778,2.22817138888889
Mon Feb 26 04:00:00 2024,0.676488333333334,2.14069611111111
Mon Feb 26 06:00:00 2024,0.676951666666667,2.2194025
Mon Feb 26 08:00:00 2024,0.675266944444444,2.08564111111111
Mon Feb 26 10:00:00 2024,0.67741,2.23020916666667
Mon Feb 26 12:00:00 2024,0.675947083333333,2.32938513888889
Mon Feb 26 14:00:00 2024,0.677503333333333,2.09360375